Boone, NC

11:02 PM EST on November 19, 2019 (GMT -0500)
Boone

Weather History for KTNB - October, 2019

Change the Weather History Date:

Monday, October 21, 2019

  Actual Average (WUND) Record (WUND)
Temperature  
Mean Temperature 50 °F -  
Max Temperature 58 °F - - (-1)
Min Temperature 42 °F - - (-1)
Degree Days  
Heating Degree Days 15    
Moisture  
Dew Point 53 °F    
Average Humidity 100    
Maximum Humidity 100    
Minimum Humidity 100    
Precipitation  
Precipitation 0.01 in - - ()
Sea Level Pressure  
Sea Level Pressure 30.09 in    
Wind  
Wind Speed 0 mph (North)    
Max Wind Speed 0 mph    
Max Gust Speed -    
Visibility 5 miles    
Events Fog , Rain    
Averages and records for this station are not official NWS values.
T = Trace of Precipitation, MM = Missing Value Source: NWS Daily Summary

Daily Weather History Graph

Daily Weather History Graph

Search for Another Location

Airport or City:

Astronomy

Oct. 21, 2019 Rise Set
Actual Time 7:38 AM EDT 6:43 PM EDT
Civil Twilight 7:12 AM EDT 7:09 PM EDT
Nautical Twilight 6:42 AM EDT 7:39 PM EDT
Astronomical Twilight 6:12 AM EDT 8:09 PM EDT
Moon No Moon Rise 2:49 PM EDT (10/21)
Length of Visible Light 11h 56m
Length of Day
11h 04m
Waning Gibbous, 48% of the Moon is Illuminated
Oct 21
Waning Gibbous
Oct 27
New
Nov 4
First Quarter
Nov 12
Full
Nov 19
Last Quarter

Hourly Weather History & Observations

Time (EDT) Temp. Dew Point Humidity Pressure Visibility Wind Dir Wind Speed Gust Speed Precip Events Conditions
12:15 AM 50.9 °F 50.9 °F 100% 30.06 in 1.2 mi Calm Calm - N/A   Overcast
12:35 AM 50.0 °F 50.0 °F 100% 30.06 in 1.8 mi Calm Calm - N/A   Overcast
12:55 AM 49.8 °F 49.8 °F 100% 30.07 in 0.8 mi Calm Calm - N/A   Overcast
1:15 AM 48.7 °F 48.7 °F 100% 30.07 in 1.5 mi Calm Calm - N/A   Overcast
1:35 AM 48.7 °F 48.7 °F 100% 30.07 in 0.8 mi Calm Calm - N/A   Overcast
1:55 AM 48.4 °F 48.4 °F 100% 30.08 in 0.2 mi Calm Calm - N/A Fog Fog
2:15 AM 46.6 °F 46.6 °F 100% 30.07 in 1.5 mi Calm Calm - N/A   Mostly Cloudy
2:35 AM 45.9 °F 45.9 °F 100% 30.07 in 0.8 mi Calm Calm - N/A   Overcast
2:55 AM 45.5 °F 45.5 °F 100% 30.07 in 1.0 mi Calm Calm - N/A   Overcast
3:35 AM 44.2 °F 44.2 °F 100% 30.07 in 3.0 mi Calm Calm - N/A   Mist
3:55 AM 44.6 °F 44.6 °F 100% 30.08 in 2.5 mi Calm Calm - N/A   Mostly Cloudy
4:15 AM 42.8 °F 42.8 °F 100% 30.07 in 3.0 mi Calm Calm - N/A   Mostly Cloudy
4:35 AM 43.5 °F 43.5 °F 100% 30.07 in 0.8 mi Calm Calm - N/A   Mostly Cloudy
4:55 AM 43.3 °F 43.3 °F 100% 30.07 in 1.0 mi Calm Calm - N/A   Overcast
5:15 AM 43.2 °F 43.2 °F 100% 30.07 in 1.0 mi Calm Calm - N/A   Overcast
5:35 AM 44.1 °F 44.1 °F 100% 30.07 in 3.0 mi Calm Calm - N/A   Overcast
5:55 AM 44.8 °F 44.8 °F 100% 30.07 in 10.0 mi Calm Calm - N/A   Overcast
6:15 AM 45.5 °F 45.5 °F 100% 30.07 in 10.0 mi Calm Calm - N/A   Overcast
6:55 AM 46.4 °F 46.4 °F 100% 30.07 in 10.0 mi Calm Calm - N/A   Overcast
7:15 AM 46.8 °F 46.8 °F 100% 30.08 in 10.0 mi Calm Calm - N/A   Overcast
7:35 AM 47.5 °F 47.5 °F 100% 30.09 in 10.0 mi Calm Calm - N/A   Overcast
7:55 AM 48.0 °F 48.0 °F 100% 30.09 in 10.0 mi Calm Calm - N/A   Overcast
8:15 AM 49.1 °F 49.1 °F 100% 30.09 in 7.0 mi Calm Calm - N/A   Overcast
8:35 AM 50.9 °F 50.9 °F 100% 30.10 in 10.0 mi Calm Calm - N/A   Overcast
8:55 AM 51.8 °F 51.8 °F 100% 30.11 in 10.0 mi Calm Calm - N/A   Overcast
9:15 AM 53.6 °F 53.6 °F 100% 30.11 in 10.0 mi Calm Calm - N/A   Overcast
9:35 AM 54.0 °F 54.0 °F 100% 30.10 in 10.0 mi Calm Calm - N/A   Overcast
9:55 AM 54.0 °F 54.0 °F 100% 30.11 in 10.0 mi Calm Calm - N/A   Overcast
10:15 AM 54.0 °F 54.0 °F 100% 30.12 in 10.0 mi Calm Calm - N/A   Overcast
10:35 AM 54.5 °F 54.5 °F 100% 30.12 in 7.0 mi Calm Calm - N/A   Overcast
10:55 AM 54.5 °F 54.5 °F 100% 30.13 in 1.8 mi Calm Calm - N/A   Overcast
11:15 AM 54.5 °F 54.5 °F 100% 30.12 in 2.5 mi Calm Calm - N/A   Overcast
11:35 AM 55.0 °F 55.0 °F 100% 30.12 in 2.0 mi Calm Calm - N/A   Overcast
11:55 AM 55.4 °F 55.4 °F 100% 30.13 in 1.8 mi Calm Calm - N/A   Overcast
12:15 PM 54.9 °F 54.9 °F 100% 30.12 in 2.0 mi Calm Calm - N/A   Overcast
12:35 PM 54.7 °F 54.7 °F 100% 30.12 in 2.5 mi Calm Calm - N/A   Overcast
12:55 PM 55.0 °F 55.0 °F 100% 30.11 in 3.0 mi Calm Calm - N/A   Overcast
1:15 PM 55.6 °F 55.6 °F 100% 30.12 in 1.8 mi Calm Calm - N/A   Overcast
1:35 PM 55.8 °F 55.8 °F 100% 30.11 in 2.5 mi Calm Calm - N/A   Overcast
1:55 PM 56.1 °F 56.1 °F 100% 30.10 in 2.5 mi Calm Calm - N/A   Overcast
2:15 PM 56.3 °F 56.3 °F 100% 30.10 in 1.8 mi Calm Calm - N/A   Overcast
2:35 PM 56.5 °F 56.5 °F 100% 30.09 in 4.0 mi Calm Calm - N/A   Overcast
2:55 PM 56.3 °F 56.3 °F 100% 30.08 in 3.0 mi Calm Calm - N/A   Overcast
3:15 PM 56.7 °F 56.7 °F 100% 30.08 in 2.5 mi Calm Calm - N/A   Overcast
3:35 PM 56.3 °F 56.3 °F 100% 30.07 in 3.0 mi Calm Calm - N/A   Overcast
3:55 PM 56.5 °F 56.5 °F 100% 30.08 in 5.0 mi Calm Calm - N/A   Overcast
4:15 PM 55.8 °F 55.8 °F 100% 30.08 in 3.0 mi Calm Calm - N/A   Overcast
4:35 PM 55.6 °F 55.6 °F 100% 30.08 in 1.8 mi Calm Calm - N/A   Overcast
4:55 PM 55.6 °F 55.6 °F 100% 30.09 in 2.5 mi Calm Calm - N/A   Overcast
5:15 PM 55.6 °F 55.6 °F 100% 30.08 in 2.0 mi Calm Calm - N/A   Overcast
5:35 PM 55.4 °F 55.4 °F 100% 30.08 in 1.5 mi Calm Calm - N/A   Overcast
5:55 PM 55.6 °F 55.6 °F 100% 30.08 in 1.2 mi Calm Calm - N/A   Overcast
6:15 PM 55.8 °F 55.8 °F 100% 30.08 in 1.5 mi Calm Calm - N/A Rain Light Rain
6:35 PM 55.8 °F 55.8 °F 100% 30.08 in 2.5 mi Calm Calm - 0.01 in   Light Drizzle
6:55 PM 55.9 °F 55.9 °F 100% 30.07 in 3.0 mi Calm Calm - 0.01 in   Light Drizzle
7:15 PM 56.3 °F 56.3 °F 100% 30.09 in 4.0 mi Calm Calm - N/A   Overcast
7:35 PM 56.3 °F 56.3 °F 100% 30.10 in 7.0 mi Calm Calm - N/A   Overcast
7:55 PM 56.7 °F 56.7 °F 100% 30.09 in 7.0 mi Calm Calm - N/A   Overcast
8:15 PM 57.2 °F 57.2 °F 100% 30.09 in 10.0 mi Calm Calm - N/A   Overcast
8:35 PM 57.6 °F 57.6 °F 100% 30.10 in 10.0 mi Calm Calm - N/A   Overcast
8:55 PM 57.4 °F 57.4 °F 100% 30.10 in 10.0 mi Calm Calm - N/A   Overcast
9:15 PM 57.4 °F 57.4 °F 100% 30.10 in 7.0 mi Calm Calm - N/A   Overcast
9:35 PM 57.4 °F 57.4 °F 100% 30.09 in 7.0 mi Calm Calm - N/A   Overcast
9:55 PM 57.4 °F 57.4 °F 100% 30.09 in 10.0 mi Calm Calm - N/A   Overcast
10:15 PM 58.1 °F 58.1 °F 100% 30.08 in 10.0 mi Calm Calm - N/A   Overcast
10:35 PM 58.1 °F 58.1 °F 100% 30.09 in 10.0 mi Calm Calm - N/A   Overcast
10:55 PM 58.1 °F 58.1 °F 100% 30.10 in 10.0 mi Calm Calm - N/A   Overcast
11:15 PM 57.9 °F 57.9 °F 100% 30.10 in 7.0 mi Calm Calm - N/A   Overcast
11:35 PM 57.7 °F 57.7 °F 100% 30.10 in 7.0 mi Calm Calm - N/A   Overcast
11:55 PM 57.4 °F 57.4 °F 100% 30.09 in 4.0 mi Calm Calm - N/A   Overcast